EW9431 Weather Reports


Display with metric or nautical units.
time (UTC)temp
F
wind
direction
speed
MPH
gust
MPH
rain 1hr
in
rain 24hr
in
rain mn
in
humidity
%
barometer
mb
20260508050023 58 114 2.0 5.0 0.00 0.00 0.00 72 1016.1
20260508045518 58 191 1.0 3.0 0.00 0.00 0.00 72 1016.2
20260508045119 59 171 2.0 5.0 0.00 0.00 0.00 71 1016.2
20260508044620 59 157 2.0 5.0 0.00 0.00 0.00 71 1016.1
20260508044119 59 181 2.0 6.0 0.00 0.00 0.00 71 1016.2
20260508043522 59 212 3.0 6.0 0.00 0.00 0.00 70 1016.2
20260508043019 59 199 3.0 6.0 0.00 0.00 0.00 70 1016.2
20260508042618 59 163 3.0 7.0 0.00 0.00 0.00 70 1016.2
20260508042018 60 197 2.0 7.0 0.00 0.00 0.00 70 1016.2
20260508041619 60 163 3.0 7.0 0.00 0.00 0.00 70 1016.3
20260508041032 60 168 4.0 6.0 0.00 0.00 0.00 70 1016.3
20260508040509 60 164 3.0 7.0 0.00 0.00 0.00 68 1016.2
20260508040033 60 318 0.0 1.0 0.00 0.00 0.00 68 1016.2
20260508035620 60 318 0.0 1.0 0.00 0.00 0.00 68 1016.0
20260508035027 61 318 0.0 2.0 0.00 0.00 0.00 68 1016.1
20260508034520 61 318 0.0 2.0 0.00 0.00 0.00 68 1016.0
20260508034005 61 318 0.0 1.0 0.00 0.00 0.00 69 1016.1
20260508033005 61 318 0.0 1.0 0.00 0.00 0.00 66 1016.0
20260508032505 61 318 0.0 2.0 0.00 0.00 0.00 66 1016.0
20260508032004 61 318 0.0 2.0 0.00 0.00 0.00 66 1016.0
20260508031504 61 318 0.0 2.0 0.00 0.00 0.00 65 1016.0
20260508031002 61 318 0.0 2.0 0.00 0.00 0.00 63 1016.1
20260508030601 62 318 0.0 2.0 0.00 0.00 0.00 63 1016.1
20260508030126 62 318 0.0 2.0 0.00 0.00 0.00 64 1016.1
20260508025559 62 318 1.0 3.0 0.00 0.00 0.00 64 1016.1
20260508025057 62 318 1.0 3.0 0.00 0.00 0.00 63 1016.1
20260508024605 62 234 0.0 2.0 0.00 0.00 0.00 62 1016.2
20260508024056 62 234 0.0 2.0 0.00 0.00 0.00 62 1016.2
20260508023556 63 234 1.0 2.0 0.00 0.00 0.00 62 1016.3
20260508023056 63 280 0.0 3.0 0.00 0.00 0.00 61 1016.4
20260508022555 63 245 1.0 4.0 0.00 0.00 0.00 61 1016.4
20260508022055 63 229 0.0 4.0 0.00 0.00 0.00 61 1016.4
20260508021555 63 286 1.0 4.0 0.00 0.00 0.00 61 1016.3
20260508021054 64 221 2.0 4.0 0.00 0.00 0.00 60 1016.3
20260508020553 64 214 0.0 4.0 0.00 0.00 0.00 59 1016.3
20260508020053 64 186 2.0 5.0 0.00 0.00 0.00 60 1016.3
20260508015552 65 216 2.0 5.0 0.00 0.00 0.00 58 1016.4
20260508015052 65 259 1.0 5.0 0.00 0.00 0.00 59 1016.4
20260508014551 65 181 2.0 6.0 0.00 0.00 0.00 58 1016.4
20260508014051 66 193 3.0 6.0 0.00 0.00 0.00 58 1016.6
20260508013550 66 210 3.0 6.0 0.00 0.00 0.00 58 1016.7
20260508013050 65 235 2.0 5.0 0.00 0.00 0.00 59 1016.6
20260508012549 65 216 2.0 5.0 0.00 0.00 0.00 59 1016.6
20260508012051 65 87 2.0 7.0 0.00 0.00 0.00 59 1016.6
20260508011600 65 185 4.0 7.0 0.00 0.00 0.00 59 1016.7
20260508011047 65 277 1.0 6.0 0.00 0.00 0.00 59 1016.7
20260508010546 65 205 3.0 6.0 0.00 0.00 0.00 59 1016.8
20260508010057 65 138 1.0 5.0 0.00 0.00 0.00 60 1016.9
20260508005545 65 240 3.0 8.0 0.00 0.00 0.00 60 1016.9
20260508005038 65 214 2.0 8.0 0.00 0.00 0.00 59 1017.0
20260508004551 65 230 2.0 6.0 0.00 0.00 0.00 58 1017.0
20260508004037 66 217 2.0 5.0 0.00 0.00 0.00 58 1017.1
20260508003536 66 220 2.0 5.0 0.00 0.00 0.00 59 1017.2
20260508003042 66 197 1.0 5.0 0.00 0.00 0.00 59 1017.2
20260508002535 65 203 1.0 5.0 0.00 0.00 0.00 60 1017.2
20260508002034 65 300 2.0 6.0 0.00 0.00 0.00 61 1017.3
20260508001539 65 222 2.0 7.0 0.00 0.00 0.00 60 1017.3
20260508001034 65 260 1.0 11.0 0.00 0.00 0.00 59 1017.2
20260508000535 65 289 3.0 11.0 0.00 0.00 0.00 58 1017.2
20260508000033 65 209 5.0 8.0 0.00 0.00 0.00 59 1017.1
20260507235533 65 245 3.0 8.0 0.00 0.00 0.00 62 1017.2
20260507235034 65 338 4.0 10.0 0.00 0.00 0.00 62 1017.2
20260507234531 65 241 2.0 10.0 0.00 0.00 0.00 63 1017.1
20260507234030 65 234 2.0 10.0 0.00 0.00 0.00 63 1017.2
20260507233533 65 191 5.0 10.0 0.00 0.00 0.00 63 1017.3
20260507233030 65 191 5.0 10.0 0.00 0.00 0.00 64 1017.3
20260507232529 65 226 5.0 11.0 0.00 0.00 0.00 63 1017.3
20260507232029 65 201 6.0 11.0 0.00 0.00 0.00 62 1017.3
20260507231528 65 205 7.0 11.0 0.00 0.00 0.00 61 1017.4
20260507231027 65 186 7.0 11.0 0.00 0.00 0.00 62 1017.4
20260507230530 65 213 4.0 11.0 0.00 0.00 0.00 62 1017.4
20260507230026 66 178 4.0 10.0 0.00 0.00 0.00 63 1017.5
20260507225526 66 184 6.0 12.0 0.00 0.00 0.00 61 1017.5
20260507225028 66 211 4.0 12.0 0.00 0.00 0.00 61 1017.5
20260507224526 67 214 6.0 11.0 0.00 0.00 0.00 60 1017.6
20260507224026 67 211 5.0 11.0 0.00 0.00 0.00 61 1017.5
20260507223528 67 218 5.0 11.0 0.00 0.00 0.00 62 1017.6
20260507223025 66 216 4.0 9.0 0.00 0.00 0.00 61 1017.5
20260507222524 66 251 5.0 8.0 0.00 0.00 0.00 61 1017.6
20260507222022 66 224 4.0 8.0 0.00 0.00 0.00 62 1017.6
20260507221522 66 216 4.0 10.0 0.00 0.00 0.00 61 1017.7
20260507221021 66 187 5.0 10.0 0.00 0.00 0.00 61 1017.8
20260507220521 66 219 4.0 10.0 0.00 0.00 0.00 61 1017.8
20260507220020 66 181 6.0 10.0 0.00 0.00 0.00 62 1017.9
20260507215518 66 170 5.0 9.0 0.00 0.00 0.00 63 1017.9
20260507215018 66 225 2.0 10.0 0.00 0.00 0.00 63 1018.1
20260507214517 66 201 4.0 11.0 0.00 0.00 0.00 63 1018.1
20260507214016 66 167 5.0 11.0 0.00 0.00 0.00 63 1018.2
20260507213517 65 225 3.0 9.0 0.00 0.00 0.00 64 1018.2
20260507213018 65 304 3.0 9.0 0.00 0.00 0.00 66 1018.3
20260507212511 65 207 1.0 10.0 0.00 0.00 0.00 66 1018.3
20260507212013 65 209 6.0 8.0 0.00 0.00 0.00 65 1018.3
20260507211510 65 226 2.0 9.0 0.00 0.00 0.00 65 1018.4
20260507211013 65 212 5.0 9.0 0.00 0.00 0.00 65 1018.5
20260507210509 65 220 5.0 9.0 0.00 0.00 0.00 65 1018.5
20260507210008 64 217 4.0 10.0 0.00 0.00 0.00 66 1018.6
20260507205507 64 210 5.0 10.0 0.00 0.00 0.00 66 1018.6
20260507205007 64 164 3.0 10.0 0.00 0.00 0.00 66 1018.7
20260507204506 64 216 4.0 10.0 0.00 0.00 0.00 68 1018.7
20260507204005 64 241 4.0 10.0 0.00 0.00 0.00 67 1018.8
20260507203508 64 220 4.0 10.0 0.00 0.00 0.00 68 1018.9
20260507203003 63 178 6.0 9.0 0.00 0.00 0.00 69 1019.0
20260507202501 63 223 3.0 12.0 0.00 0.00 0.00 71 1019.0
20260507202100 62 201 4.0 12.0 0.00 0.00 0.00 71 1019.1
20260507201558 62 197 2.0 5.0 0.00 0.00 0.00 71 1019.1
20260507201057 62 10 1.0 4.0 0.00 0.00 0.00 72 1019.1
20260507200557 61 268 2.0 6.0 0.00 0.00 0.00 73 1019.3
20260507200054 60 220 3.0 8.0 0.00 0.00 0.00 74 1019.3
20260507195555 60 215 3.0 8.0 0.00 0.00 0.00 74 1019.4
20260507195052 60 185 3.0 7.0 0.00 0.00 0.00 75 1019.3
20260507194551 59 118 1.0 5.0 0.00 0.00 0.00 76 1019.4
20260507194050 59 128 2.0 6.0 0.00 0.00 0.00 76 1019.4
20260507193549 59 170 3.0 6.0 0.00 0.00 0.00 77 1019.5
20260507193048 59 205 1.0 5.0 0.00 0.00 0.00 78 1019.5
20260507192546 58 342 2.0 5.0 0.00 0.00 0.00 79 1019.6
20260507192047 58 282 1.0 4.0 0.00 0.00 0.00 79 1019.6
20260507191545 58 180 1.0 5.0 0.00 0.00 0.00 79 1019.6
20260507191045 58 204 2.0 4.0 0.00 0.00 0.00 79 1019.6
20260507190544 57 270 1.0 5.0 0.00 0.00 0.00 79 1019.6
20260507190045 57 170 3.0 6.0 0.00 0.00 0.00 79 1019.6
20260507185544 57 212 2.0 6.0 0.00 0.00 0.00 79 1019.7
20260507185044 58 232 2.0 6.0 0.00 0.00 0.00 79 1019.7
20260507184544 58 153 3.0 6.0 0.00 0.00 0.00 79 1019.7
20260507184044 58 126 1.0 4.0 0.00 0.00 0.00 79 1019.7
20260507183543 58 149 1.0 4.0 0.00 0.00 0.00 79 1019.7
20260507183048 58 185 2.0 4.0 0.00 0.00 0.00 80 1019.8
20260507182544 57 226 1.0 6.0 0.00 0.00 0.00 79 1019.8
20260507182042 57 214 1.0 6.0 0.00 0.00 0.00 80 1019.9
20260507181523 57 169 2.0 7.0 0.00 0.00 0.00 79 1019.9
20260507181024 57 207 3.0 7.0 0.00 0.00 0.00 79 1019.9
20260507180524 57 202 2.0 6.0 0.00 0.00 0.00 78 1019.9
20260507180022 57 136 1.0 5.0 0.00 0.00 0.00 79 1019.9
20260507175522 57 217 2.0 7.0 0.00 0.00 0.00 79 1019.9
20260507175021 57 152 3.0 7.0 0.00 0.00 0.00 81 1020.0
20260507174528 56 271 1.0 6.0 0.00 0.00 0.00 82 1020.0
20260507174018 56 216 2.0 6.0 0.00 0.00 0.00 84 1020.1
20260507173519 55 108 1.0 5.0 0.00 0.00 0.00 84 1020.2
20260507173018 55 143 1.0 6.0 0.00 0.00 0.00 85 1020.1
20260507172517 54 133 0.0 2.0 0.00 0.00 0.00 86 1020.2
20260507172011 54 360 0.0 2.0 0.00 0.00 0.00 86 1020.3
20260507171512 54 360 1.0 2.0 0.00 0.00 0.00 86 1020.3
20260507171011 54 287 0.0 2.0 0.00 0.00 0.00 86 1020.3
20260507170512 54 287 0.0 3.0 0.00 0.00 0.00 86 1020.3
20260507170008 54 287 1.0 3.0 0.00 0.00 0.00 86 1020.3
20260507165507 53 262 0.0 4.0 0.00 0.00 0.00 86 1020.4
20260507165008 53 204 2.0 4.0 0.00 0.00 0.00 85 1020.3
20260507164512 53 205 1.0 4.0 0.00 0.00 0.00 86 1020.3
20260507164009 53 218 1.0 4.0 0.00 0.00 0.00 86 1020.3
20260507163506 53 209 2.0 4.0 0.00 0.00 0.00 86 1020.3
20260507163007 53 243 0.0 3.0 0.00 0.00 0.00 85 1020.3
20260507162506 53 224 0.0 4.0 0.00 0.00 0.00 85 1020.2
20260507162006 53 237 1.0 4.0 0.00 0.00 0.00 85 1020.2
20260507161509 53 213 0.0 5.0 0.00 0.00 0.00 86 1020.3
20260507161005 53 215 2.0 5.0 0.00 0.00 0.00 86 1020.3
20260507160505 53 270 0.0 3.0 0.00 0.00 0.00 87 1020.3
20260507160006 53 210 1.0 3.0 0.00 0.00 0.00 87 1020.3
20260507155506 53 180 0.0 3.0 0.00 0.00 0.00 88 1020.3
20260507155004 52 181 1.0 4.0 0.00 0.00 0.00 88 1020.3
20260507154505 52 132 1.0 4.0 0.00 0.00 0.00 89 1020.3
20260507154005 52 154 2.0 4.0 0.00 0.00 0.00 89 1020.2
20260507153505 52 186 1.0 5.0 0.00 0.00 0.00 89 1020.2
20260507153006 52 216 3.0 5.0 0.00 0.00 0.00 90 1020.2
20260507152503 52 233 1.0 4.0 0.00 0.00 0.00 90 1020.3
20260507152001 52 129 1.0 5.0 0.00 0.00 0.00 90 1020.2
20260507151601 52 158 2.0 5.0 0.00 0.00 0.00 90 1020.3
20260507151059 52 145 1.0 4.0 0.00 0.00 0.00 90 1020.3
20260507150559 52 122 2.0 3.0 0.00 0.00 0.00 90 1020.4
20260507150057 52 148 1.0 3.0 0.00 0.00 0.00 90 1020.5
20260507145557 52 148 1.0 3.0 0.00 0.00 0.00 90 1020.5
20260507145055 52 220 2.0 3.0 0.00 0.00 0.00 89 1020.4
20260507144558 52 197 0.0 3.0 0.00 0.00 0.00 89 1020.4
20260507144054 52 160 1.0 3.0 0.00 0.00 0.00 89 1020.3
20260507143553 52 172 2.0 4.0 0.00 0.00 0.00 89 1020.4
20260507143052 52 172 1.0 4.0 0.00 0.00 0.00 89 1020.5
20260507142552 52 193 1.0 4.0 0.00 0.00 0.00 89 1020.4
20260507142049 52 191 0.0 2.0 0.00 0.00 0.00 89 1020.4
20260507141554 52 191 0.0 3.0 0.00 0.00 0.00 89 1020.3
20260507141049 52 191 1.0 3.0 0.00 0.00 0.00 89 1020.3
20260507140549 52 241 0.0 3.0 0.00 0.00 0.00 89 1020.2
20260507140106 52 227 0.0 2.0 0.00 0.00 0.00 89 1020.1
20260507135544 52 178 0.0 2.0 0.00 0.00 0.00 89 1020.2
20260507135044 52 178 0.0 2.0 0.00 0.00 0.00 88 1020.2
20260507134544 52 185 0.0 3.0 0.00 0.00 0.00 88 1020.2
20260507134042 52 185 1.0 3.0 0.00 0.00 0.00 88 1020.2
20260507133542 52 85 0.0 2.0 0.00 0.00 0.00 88 1020.3
20260507133042 52 101 1.0 2.0 0.00 0.00 0.00 88 1020.1
20260507132540 52 203 0.0 2.0 0.00 0.00 0.00 88 1020.1
20260507132043 52 159 0.0 3.0 0.00 0.00 0.00 87 1020.1
20260507131540 52 179 0.0 3.0 0.00 0.00 0.00 87 1020.1
20260507131042 52 37 0.0 3.0 0.00 0.00 0.00 87 1020.1
20260507130539 52 174 1.0 4.0 0.00 0.00 0.00 87 1020.1
20260507130049 52 139 1.0 5.0 0.00 0.00 0.00 87 1020.0
20260507125539 52 191 2.0 5.0 0.00 0.00 0.00 87 1020.1
20260507125038 53 213 1.0 4.0 0.00 0.00 0.00 87 1020.0
20260507124546 53 172 1.0 6.0 0.00 0.00 0.00 87 1020.0
20260507124038 53 210 2.0 6.0 0.00 0.00 0.00 87 1020.0
20260507123538 53 223 2.0 3.0 0.00 0.00 0.00 87 1020.0
20260507123051 53 128 0.0 4.0 0.00 0.00 0.00 87 1020.0
20260507122536 53 158 1.0 4.0 0.00 0.00 0.00 87 1020.0
20260507122036 53 88 0.0 3.0 0.00 0.00 0.00 86 1020.0
20260507121541 53 205 1.0 3.0 0.00 0.00 0.00 86 1020.0
20260507121036 53 145 0.0 3.0 0.00 0.00 0.00 87 1019.9
20260507120535 53 168 0.0 2.0 0.00 0.00 0.00 87 1020.0
20260507120035 53 219 1.0 3.0 0.00 0.00 0.00 87 1020.1
20260507115535 53 10 0.0 3.0 0.00 0.00 0.00 86 1020.1
20260507115034 53 208 1.0 2.0 0.00 0.00 0.00 86 1020.3
20260507114535 53 158 1.0 3.0 0.00 0.00 0.00 86 1020.3
20260507114036 53 182 1.0 3.0 0.00 0.00 0.00 86 1020.3
20260507113533 53 182 1.0 5.0 0.00 0.00 0.00 86 1020.3
20260507113035 53 174 1.0 5.0 0.00 0.00 0.00 86 1020.3
20260507112532 53 205 0.0 3.0 0.00 0.00 0.00 86 1020.3
20260507112031 53 333 1.0 3.0 0.00 0.00 0.00 86 1020.3
20260507111532 53 199 0.0 3.0 0.00 0.00 0.00 86 1020.3
20260507111030 53 121 1.0 5.0 0.00 0.00 0.00 86 1020.3
20260507110530 53 183 2.0 5.0 0.00 0.00 0.00 86 1020.2
20260507110030 53 156 2.0 5.0 0.00 0.00 0.00 85 1020.3
20260507105531 53 187 3.0 5.0 0.00 0.00 0.00 85 1020.3
20260507105028 53 149 1.0 4.0 0.00 0.00 0.00 85 1020.3
20260507104529 53 147 1.0 3.0 0.00 0.00 0.00 85 1020.2
20260507104028 53 195 0.0 4.0 0.00 0.00 0.00 85 1020.2
20260507103527 53 180 2.0 5.0 0.00 0.00 0.00 85 1020.2
20260507103027 53 190 3.0 5.0 0.00 0.00 0.00 85 1020.2
20260507102525 53 172 1.0 4.0 0.00 0.00 0.00 85 1020.3
20260507102025 53 192 0.0 3.0 0.00 0.00 0.00 85 1020.2
20260507101533 53 154 1.0 5.0 0.00 0.00 0.00 85 1020.1
20260507101023 54 135 1.0 5.0 0.00 0.00 0.00 85 1020.0
20260507100523 54 172 1.0 3.0 0.00 0.00 0.00 85 1020.0
20260507100031 54 178 1.0 5.0 0.00 0.00 0.00 85 1020.0
20260507095523 54 169 2.0 5.0 0.00 0.00 0.00 85 1020.0
20260507095023 54 174 1.0 2.0 0.00 0.00 0.00 84 1020.0
20260507094523 54 174 0.0 2.0 0.00 0.00 0.00 84 1020.0
20260507094022 54 174 0.0 2.0 0.00 0.00 0.00 84 1020.1
20260507093523 54 174 0.0 2.0 0.00 0.00 0.00 84 1020.1
20260507093035 54 248 0.0 1.0 0.00 0.00 0.00 84 1020.1
20260507092524 54 255 0.0 1.0 0.00 0.00 0.00 84 1020.1
20260507092021 54 162 0.0 2.0 0.00 0.00 0.00 84 1020.1
20260507091521 54 162 0.0 3.0 0.00 0.00 0.00 84 1020.1
20260507091020 54 166 1.0 3.0 0.00 0.00 0.00 84 1020.1
20260507090523 54 196 0.0 3.0 0.00 0.00 0.00 84 1020.1
20260507090029 54 143 0.0 2.0 0.00 0.00 0.00 84 1020.0
20260507085520 54 143 0.0 2.0 0.00 0.00 0.00 84 1020.0
20260507085019 54 143 0.0 2.0 0.00 0.00 0.00 84 1020.0
20260507084518 54 143 0.0 2.0 0.00 0.00 0.00 84 1020.0
20260507084022 54 143 0.0 2.0 0.00 0.00 0.00 83 1020.0
20260507083518 54 143 0.0 3.0 0.00 0.00 0.00 84 1020.0
20260507083032 54 143 0.0 4.0 0.00 0.00 0.00 84 1020.0
20260507082517 54 203 2.0 4.0 0.00 0.00 0.00 84 1019.9
20260507082016 54 54 0.0 3.0 0.00 0.00 0.00 83 1019.9
20260507081516 54 63 0.0 1.0 0.00 0.00 0.00 84 1019.8
20260507081016 54 63 0.0 1.0 0.00 0.00 0.00 83 1019.8
20260507080515 54 63 0.0 1.0 0.00 0.00 0.00 84 1019.8
20260507080015 54 63 0.0 1.0 0.00 0.00 0.00 83 1019.8
20260507075515 54 63 0.0 1.0 0.00 0.00 0.00 83 1019.8
20260507075016 54 63 0.0 4.0 0.00 0.00 0.00 83 1019.8
20260507074525 54 63 0.0 4.0 0.00 0.00 0.00 83 1019.8
20260507074015 54 43 0.0 2.0 0.00 0.00 0.00 83 1019.8
20260507073515 54 329 0.0 2.0 0.00 0.00 0.00 83 1019.8
20260507073013 54 243 0.0 4.0 0.00 0.00 0.00 83 1019.7
20260507072512 54 193 2.0 4.0 0.00 0.00 0.00 83 1019.7
20260507072012 54 180 1.0 3.0 0.00 0.00 0.00 83 1019.7
20260507071511 54 207 1.0 3.0 0.00 0.00 0.00 83 1019.6
20260507071017 54 146 2.0 4.0 0.00 0.00 0.00 83 1019.6
20260507070510 54 185 2.0 3.0 0.00 0.00 0.00 82 1019.6
20260507070012 54 102 0.0 2.0 0.00 0.00 0.00 82 1019.6
20260507065514 54 331 0.0 3.0 0.00 0.00 0.00 82 1019.5
20260507065009 54 42 1.0 4.0 0.00 0.00 0.00 82 1019.5
20260507064510 54 58 1.0 4.0 0.00 0.00 0.00 82 1019.5
20260507064009 54 57 0.0 4.0 0.00 0.00 0.00 82 1019.5
20260507063508 54 31 1.0 3.0 0.00 0.00 0.00 82 1019.5
20260507063007 54 10 1.0 3.0 0.00 0.00 0.00 82 1019.5
20260507062507 55 360 0.0 4.0 0.00 0.00 0.00 82 1019.5
20260507062007 55 33 0.0 4.0 0.00 0.00 0.00 81 1019.5
20260507061507 55 93 0.0 4.0 0.00 0.00 0.00 81 1019.5
20260507061006 55 91 1.0 4.0 0.00 0.00 0.00 81 1019.5
20260507060506 55 89 0.0 5.0 0.00 0.00 0.00 81 1019.5
20260507055506 55 79 1.0 3.0 0.00 0.00 0.00 81 1019.5
20260507055005 55 145 1.0 3.0 0.00 0.00 0.00 81 1019.5
20260507054505 55 184 0.0 3.0 0.00 0.00 0.00 81 1019.4
20260507054006 55 184 0.0 3.0 0.00 0.00 0.00 81 1019.4
20260507053505 55 185 0.0 4.0 0.00 0.00 0.00 80 1019.4
20260507053005 55 211 1.0 4.0 0.00 0.00 0.00 80 1019.4
20260507052504 55 147 1.0 2.0 0.00 0.00 0.00 80 1019.3
20260507052004 55 185 0.0 4.0 0.00 0.00 0.00 80 1019.3
20260507051504 55 185 0.0 4.0 0.00 0.00 0.00 80 1019.4
20260507051004 55 63 0.0 3.0 0.00 0.00 0.00 80 1019.3
20260507050504 55 188 0.0 3.0 0.00 0.00 0.00 80 1019.4